Tracking 29892 objects as of 21-Nov-2024
HD Live streaming from Space Station
objects crossing your sky now

COSMOS 926

Track COSMOS 926 now!
10-day predictions
COSMOS 926 is classified as:


NORAD ID: 10137
Int'l Code: 1977-062A
Perigee: 973.4 km
Apogee: 1,022.1 km
Inclination: 82.9 °
Period: 104.9 minutes
Semi major axis: 7368 km
RCS: 1.8159 m2 (large)
Launch date: July 8, 1977
Source: Commonwealth of Independent States (former USSR) (CIS)
Launch site: PLESETSK MISSILE AND SPACE COMPLEX (PKMTR)
Your satellite tracking list
Your tracking list is empty




NASA's NSSDC Master Catalog

Two Line Element Set (TLE):
1 10137U 77062A   24325.79363368  .00000107  00000-0  10024-3 0  9993
2 10137  82.9422  70.7365 0033027 159.7297   5.9175 13.72495366371569
Source of the keplerian elements: AFSPC